Location: Bakhuizen
(52.8696°N, 5.4575°E)
Time: 05:44:15
(UTC+00:00)

Nimbus 7 Rocket - Pass Details

Date: 02 October 2021
Orbit: 922 x 965 km, 99.4° (Epoch: 17 October)

Event Time Altitude Azimuth Distance (km) Brightness Sun altitude
Rises 01:49:19 0° 11° (N) 3,587 8.2 -32.8°
Reaches altitude 10° 01:52:34 10° 352° (N) 2,644 7.2 -32.4°
Enters shadow 01:55:38 17° 321° (NW) 2,179 6.3 -32.1°
